This demonstration page uses our WeatherBlox Daily Observations layout. Learn more.

Left ArrowRight Arrow

Hourly Observations for November 20, 2020

Temp ( °F °C ) Dew Point ( °F °C ) Humidity (%) Winds ( mph kmh ) Pressure ( in mb ) Visibility ( mi km ) Precip ( " mm )
12:52 am 00:52 Clear 42 5.6 36 2.2 79 79 N 10 17 30.13 1020 10 16 0.00 0.00
1:52 am 01:52 Clear 41 5 36 2.2 82 82 N 12 19 30.16 1022 10 16 0.00 0.00
2:52 am 02:52 Mostly Clear 41 5 36 2.2 82 82 NNE 6 9 30.19 1023 10 16 0.00 0.00
3:52 am 03:52 Mostly Clear 35 1.7 33 0.6 93 93 N 7 11 30.22 1024 10 16 0.00 0.00
4:52 am 04:52 Clear 39 3.9 35 1.7 86 86 N 9 15 30.26 1025 10 16 0.00 0.00
5:52 am 05:52 Clear 38 3.3 35 1.7 89 89 NNE 8 13 30.30 1026 10 16 0.00 0.00
6:52 am 06:52 Mostly Cloudy 40 4.4 36 2.2 86 86 NNE 7 11 30.32 1027 10 16 0.00 0.00
7:52 am 07:52 Mostly Cloudy 40 4.4 37 2.8 89 89 N 9 15 30.36 1028 10 16 0.00 0.00
8:52 am 08:52 Mostly Cloudy 41 5 38 3.3 89 89 N 7 11 30.40 1029 10 16 0.00 0.00
9:52 am 09:52 Mostly Cloudy 45 7.2 39 3.9 80 80 N 7 11 30.42 1030 10 16 0.00 0.00
10:52 am 10:52 Mostly Cloudy 50 10 40 4.4 68 68 NNE 5 7 30.43 1031 10 16 0.00 0.00
11:52 am 11:52 Mostly Cloudy 51 10.6 38 3.3 61 61 N 8 13 30.43 1030 10 16 0.00 0.00
12:52 pm 12:52 Mostly Cloudy 55 12.8 36 2.2 49 49 N 7 11 30.42 1030 10 16 0.00 0.00
1:52 pm 13:52 Mostly Cloudy 56 13.3 36 2.2 47 47 NNW 9 15 30.41 1030 10 16 0.00 0.00
2:52 pm 14:52 Mostly Cloudy 54 12.2 37 2.8 53 53 NNW 9 15 30.42 1030 10 16 0.00 0.00
3:52 pm 15:52 Mostly Cloudy 54 12.2 34 1.1 47 47 NNE 10 17 30.44 1031 10 16 0.00 0.00
4:52 pm 16:52 Mostly Cloudy 52 11.1 34 1.1 50 50 NE 3 6 30.45 1031 10 16 0.00 0.00
5:52 pm 17:52 Mostly Cloudy 49 9.4 36 2.2 61 61 N 5 7 30.47 1032 10 16 0.00 0.00
6:52 pm 18:52 Cloudy 49 9.4 35 1.7 59 59 NNE 3 6 30.48 1032 10 16 0.00 0.00
7:52 pm 19:52 Cloudy 41 5 34 1.1 76 76 NNW 7 11 30.50 1033 10 16 0.00 0.00
8:52 pm 20:52 Cloudy 40 4.4 33 0.6 77 77 N 5 7 30.51 1033 10 16 0.00 0.00
9:52 pm 21:52 Cloudy 39 3.9 34 1.1 82 82 N 3 6 30.53 1034 10 16 0.00 0.00
10:52 pm 22:52 Cloudy 37 2.8 33 0.6 86 86 NNW 6 9 30.53 1034 10 16 0.00 0.00
11:52 pm 23:52 Cloudy 38 3.3 33 0.6 83 83 N 8 13 30.53 1034 10 16 0.00 0.00

Powered by AerisWeather